METEOR-M2 2

Last updated on Sun Nov 16 2025 00:03:08 GMT+0000 (Coordinated Universal Time)

1 44387U 19038A 25319.47972296 .00000381 00000+0 18490-3 0 9999 2 44387 98.8944 298.8787 0000252 312.7968 47.3189 14.24274706330874
UTC large
Height (km)
Speed (km/s)
/
Latitude / Longitude
Inclination (degrees)
Orbital Period (minutes)
Azimuth
Elevation
Range (km)
Doppler Factor

Next 0 passes for location: London (51.5072 / 0.1276)

Sorry there are no passes over London.